www.pogodaiklimat.ru
ПОГОДА в Плимуте
Время
и дата
03:31 27.09
03:52 27.09
04:15 27.09
04:30 27.09
04:39 27.09
04:46 27.09
04:52 27.09
05:23 27.09
05:34 27.09
05:38 27.09
05:52 27.09
05:59 27.09
06:03 27.09
06:18 27.09
06:35 27.09
06:52 27.09
07:52 27.09
08:52 27.09
09:52 27.09
10:52 27.09
11:52 27.09
12:52 27.09
13:52 27.09
14:52 27.09
15:52 27.09
16:52 27.09
17:52 27.09
18:52 27.09
19:52 27.09
20:52 27.09
21:52 27.09
22:52 27.09
23:52 27.09
00:52 28.09
01:52 28.09
02:52 28.09
03:52 28.09
04:52 28.09
05:52 28.09
06:52 28.09
07:52 28.09
08:14 28.09
08:52 28.09
09:52 28.09
10:52 28.09
11:52 28.09
12:52 28.09
13:52 28.09
Ветер
(напр.,м/с)
Видим. Явления Облачность Т
(С)
Тd
(С)
f
(%)
Тe
(С)
Тes
(С)
Комфортность P
(гПа)
Po
(гПа)
Тmin
(С)
Tmax
(С)
R
(мм)
R24
(мм)
S
(см)
штиль 0 800 м туман ?/? +12.8 +12.2 96 +12 +12 1003.7
штиль 0 800 м туман ?/? +12.2 +12.2 100 +11 +11 1009.4 1003.7
В 2 800 м туман ?/? +12.2 +11.7 97 +11 +11 1003.7
В 2 400 м туман ?/? +12.8 +12.2 96 +12 +12 1003.7
ЮВ 2 400 м туман ?/? +13.3 +12.8 97 +12 +12 1004.0
штиль 0 800 м туман ?/? +13.0 +13.0 100 +12 +12 1004.0
штиль 0 1 км дымка ?/? +13.3 +12.8 97 +13 +13 1009.5 1004.0
В 2 400 м туман ?/? +13.3 +12.8 97 +12 +12 1003.7
штиль 0 400 м туман ?/? +13.9 +13.3 96 +13 +13 1004.0
штиль 0 800 м туман ?/? +13.9 +13.3 96 +13 +13 1004.0
штиль 0 4 км дымка 10/8 60 m
[Ac]
+13.9 +13.3 96 +13 +13 1009.5 1004.0
штиль 0 6 км дымка 10/8 30 m
[Ac]
+14.4 +13.3 93 +14 +14 1004.0
штиль 0 3 км дымка 10/8 30 m
[Ac]
+14.4 +13.3 93 +14 +14 1004.0
ЮВ 2 5 км дымка 10/10 30 м +15.6 +15.0 96 +15 +15 1004.0
ЮВ 3 14 км 5/5 30 м +16.7 +16.1 96 +16 +16 1004.0
ЮВ 3 16 км 8/0 2850 m
[Ac]
+17.8 +17.2 96 +18 +18 1009.4 1004.0 +12.2 +17.8
Ю 3 16 км ясно +20.0 +15.6 76 +23 +24 комфорт 1009.6 1004.0
нст 3 16 км 2/2 60 м +21.1 +15.6 71 +24 +26 комфорт 1010.1 1004.3
ЮЗ 6 16 км 2/2 1170 м +21.7 +13.9 61 +25 +27 комфорт 1010.4 1004.7
ЮЗ 5 16 км ясно +21.7 +11.1 51 +24 +28 комфорт 1010.2 1004.7
ЮЗ 7
{11}
16 км ясно +23.3 +12.2 50 +26 +29 жарко 1010.0 1004.3
ЮЗ 6
{10}
16 км ясно +23.3 +11.1 46 +26 +30 жарко 1009.4 1003.7 +17.8 +23.9
ЮЗ 8
{12}
16 км ясно +23.3 +8.3 38 +24 +26 комфорт 1009.3 1003.7
ЮЗ 10
{13}
16 км ясно +22.8 +6.7 35 +23 +24 комфорт 1009.5 1004.0
ЮЗ 6 16 км ясно +21.7 +7.2 39 +23 +24 комфорт 1009.7 1004.0
ЮЗ 3 16 км ясно +20.0 +8.3 47 +21 +23 комфорт 1010.4 1004.7
ЮЗ 3 16 км ясно +17.2 +9.4 60 +17 +17 1010.9 1005.3
Ю 2 16 км ясно +16.1 +10.0 67 +16 +16 1011.4 1005.7 +14.4 +23.9
ЮЗ 2 16 км ясно +15.0 +10.0 72 +15 +15 1012.5 1006.7
ЮЗ 3 16 км ясно +13.9 +10.6 80 +13 +13 1012.8 1007.0
ЮЗ 2 16 км ясно +12.8 +10.0 83 +12 +12 1013.1 1007.4
ЮЗ 2 16 км ясно +13.3 +9.4 77 +13 +13 1013.5 1007.7
ЮЗ 3 16 км ясно +13.3 +9.4 77 +12 +12 1013.8 1008.0
ЮЗ 3 16 км 8/8 1950 м +11.7 +9.4 86 +10 +10 1014.0 1008.4 +11.7 +16.1
ЮЗ 4 16 км 5/0 2100 m
[Ac]
+12.2 +8.9 80 +10 +10 1014.3 1008.7
ЮЗ 2 16 км 10/0 2400 m
[Ac]
+12.2 +8.9 80 +11 +11 1014.4 1008.7
ЮЗ 2 16 км ясно +10.0 +8.3 89 +8 +8 1014.5 1008.7
штиль 0 16 км ясно +9.4 +8.3 93 +9 +9 1014.9 1009.4
штиль 0 16 км ясно +8.9 +7.8 93 +8 +8 1015.2 1009.7
штиль 0 16 км ясно +12.2 +10.0 86 +12 +12 1015.9 1010.4 +8.3 +12.8
ЮЗ 3 16 км ясно +15.6 +10.6 72 +15 +16 1016.5 1010.7
З 3 16 км 2/2 60 м +16.1 +10.6 70 +16 +18 1011.1
З 4 16 км ясно +17.8 +10.6 63 +18 +20 1016.9 1011.4
З 5 16 км ясно +18.9 +10.0 56 +19 +22 1017.0 1011.4
З 5 16 км 2/2 1140 м +20.0 +10.0 53 +21 +25 комфорт 1017.0 1011.4
З 4 16 км 5/5 1230 м +21.1 +10.6 51 +23 +26 комфорт 1017.3 1011.7
З 5 16 км 2/2 1290 м +20.6 +9.4 49 +22 +27 комфорт 1017.4 1011.7 +12.2 +21.7
З 6
{9}
16 км ясно +21.7 +10.0 47 +23 +27 комфорт 1017.3 1011.7
Местоположение метеостанции Plymouth Municipal Airport: широта 41.9086 долгота -70.7281 высота над уровнем моря 45 м.
В архиве по умолчанию представлена погода в Плимуте за последние 1-2 суток. Обновление информации о фактической погоде в базе происходит ежечасно! Архивные данные за месяц целиком и за предыдущие месяцы Вы можете получить, выбрав интересующий диапазон дат из раскрывающегося списка и нажав кнопку "Ввод!".
Внимание! Архив погоды МЕТАР в базе сайта по станциям, не включенным в климатический монитор, хранится не более 60 дней. Нет смысла пытаться выбрать более раннюю дату.
*Определитесь, кто Вы:
Внимание! Время в таблицах - местное (без учета летнего времени). Для получения всемирного времени необходимо вычесть поправку, которая равна -5 ч.
Смотрите также архив погоды в соседних городах и на ближайших метеорологических станциях:
Партнеры нашего сайта:      
Пояснения к столбцам:
  • Ветер - указаны скорость ветра в м/с - средняя за 10 мин, порывы в срок и между сроками (в фигурных скобках) и направление, откуда дует ветер: С - северный,
  • СВ - северо-восточный, В - восточный, ЮВ - юго-восточный, Ю - южный, ЮЗ - юго-западный, З - западный, СЗ - северо-западный.
  • Видимость - горизонтальная дальность видимости в метрах или километрах. При видимости от 1 до 10 км при отсутствии осадков обычно наблюдается дымка, при ухудшении видимости до 1 км и менее - туман. В сухую погоду видимость может ухудшаться дымом, пылью или мглою.
  • Явления - указаны атмосферные явления, наблюдавшиеся в срок или в последний час перед сроком; фигурными скобками обозначены явления, наблюдавшиеся между сроками (за 1-3 часа до срока); квадратными скобками обозначены град или гололедные отложения с указанием их диаметра в мм.
  • Облачность - указаны через наклонную черту общая и нижняя облачность в баллах и высота нижней границы облаков в метрах; квадратными скобками обозначены формы облаков: Ci - перистые, Cs - перисто-слоистые, Cc - перисто-кучевые, Ac - высококучевые, As - высокослоистые, Sc - слоисто-кучевые, Ns - слоисто-дождевые, Cu - кучевые, Cb - кучево-дождевые. Подробнее классификацию облаков см. в Атласе облаков (PDF).
  • T - Температура воздуха - температура, измеренная на высоте 2 м над землей.
  • Td - Температура точки росы - температура, при понижении до которой содержащийся в воздухе водяной пар достигнет насыщения.
  • f - Относительная влажность воздуха - влажноcть воздуха, измеренная на высоте 2 м над землей.
  • Te - Эффективная температура - температура, которую ощущает одетый по сезону человек в тени. Характеристика душности погоды. При расчете учитывается влияние влажности воздуха и скорости ветра на теплоощущения человека.
  • Tes - Эффективная температура на солнце - температура, которую ощущает человек, с поправкой на солнечный нагрев. Характеристика знойности погоды. Зависит от высоты солнца над горизонтом, облачности и скорости ветра. Ночью, в пасмурную погоду, а также при ветре 12 м/с и более поправка равна нулю.
  • P - Атмосферное давление - приведенное к уровню моря атмосферное давление.
  • Po - Атмосферное давление - измеренное на уровне метеостанции атмосферное давление.
  • Tmin - Минимальная температура - минимум температуры воздуха на высоте 2 м над землей.
  • Tmax - Максимальная температура - максимум температуры воздуха на высоте 2 м над землей.
  • R - Количество осадков - Количество выпавших осадков за период времени, мм. При наведении курсора мыши на число - период времени, за который выпало указанное количество осадков.
  • R24 - Количество осадков - Количество выпавших осадков за 24 часа, мм.
  • S - Снежный покров - Высота снежного покрова, см. При наведении курсора мыши на число - состояние снежного покрова и степень покрытия местности в баллах.